This is the latest recevied weather packets stored in our database for station/object N7WSS. If no packets are shown the sender has not sent any weather packets the latest 1 day(s).
| Time | Temp. | Humidity | Pressure | Rain* | Wind** | Luminosity | Snow |
|---|---|---|---|---|---|---|---|
| 1778039666 | 16.67° C | 44% | 1011.3 hPa | 0 mm | 0.45 m/s, 103° | - | - |
| 1778039362 | 16.67° C | 44% | 1011.1 hPa | 0 mm | 0 m/s | - | - |
| 1778039060 | 17.22° C | 44% | 1010.9 hPa | 0 mm | 0 m/s | - | - |
| 1778038757 | 17.22° C | 43% | 1010.8 hPa | 0 mm | 0.45 m/s, 94° | - | - |
| 1778038454 | 17.78° C | 42% | 1011.1 hPa | 0 mm | 0 m/s | - | - |
| 1778038151 | 17.78° C | 41% | 1011.1 hPa | 0 mm | 0.45 m/s, 73° | - | - |
| 1778037848 | 17.78° C | 41% | 1010.7 hPa | 0 mm | 0.45 m/s, 133° | - | - |
| 1778037544 | 17.78° C | 40% | 1010.6 hPa | 0 mm | 0.45 m/s, 153° | - | - |
| 1778037242 | 17.78° C | 41% | 1010.5 hPa | 0 mm | 0 m/s | - | - |
| 1778036939 | 18.33° C | 40% | 1010.4 hPa | 0 mm | 0.89 m/s, 105° | - | - |
| 1778036637 | 18.33° C | 40% | 1010.3 hPa | 0 mm | 0.45 m/s, 59° | - | - |
| 1778036334 | 18.33° C | 40% | 1010.3 hPa | 0 mm | 0.45 m/s, 100° | - | - |
| 1778036030 | 18.33° C | 40% | 1010.4 hPa | 0 mm | 0.89 m/s, 115° | - | - |
| 1778035727 | 18.33° C | 39% | 1010.2 hPa | 0 mm | 0 m/s | - | - |
| 1778035424 | 18.33° C | 39% | 1010.2 hPa | 0 mm | 0.89 m/s, 106° | - | - |
| 1778035120 | 18.33° C | 39% | 1010.1 hPa | 0 mm | 1.34 m/s, 319° | - | - |
| 1778034817 | 18.89° C | 40% | 1009.9 hPa | 0 mm | 0.45 m/s, 153° | - | - |
| 1778034514 | 18.89° C | 39% | 1009.9 hPa | 0 mm | 0.89 m/s, 113° | - | - |
| 1778034212 | 18.89° C | 39% | 1009.9 hPa | 0 mm | 0.89 m/s, 115° | - | - |
| 1778033910 | 18.89° C | 39% | 1009.7 hPa | 0 mm | 0.45 m/s, 109° | - | - |
| 1778033606 | 18.89° C | 38% | 1009.5 hPa | 0 mm | 1.34 m/s, 85° | - | - |
| 1778033303 | 19.44° C | 38% | 1009.3 hPa | 0 mm | 0.45 m/s, 112° | - | - |
| 1778033001 | 19.44° C | 37% | 1009.3 hPa | 0 mm | 1.34 m/s, 107° | - | - |
| 1778032698 | 20° C | 35% | 1009.1 hPa | 0 mm | 1.34 m/s, 108° | - | - |
| 1778032396 | 20° C | 35% | 1009.2 hPa | 0 mm | 1.34 m/s, 150° | - | - |
* Rain latest hour (hover to see other rain measurements)
** Current wind speed in m/s (hover to see current wind gust speed)